Location: Landeleau
(48.2273°N, 3.7285°W)
Time: 06:29:58
(UTC+00:00)

Cosmos 1980 Rocket - Visible Passes

Search period start: 11 August 2020 00:00
Search period end: 21 August 2020 00:00
Orbit: 828 x 851 km, 71.0° (Epoch: 10 August)

Date Brightness Start Highest point End Pass type
(mag) Time Alt. Az. Time Alt. Az. Time Alt. Az.
11 Aug 3.1 21:33:54 10° NW 21:39:15 43° WSW 21:43:14 17° S visible
12 Aug 3.0 21:18:10 10° NW 21:23:34 46° WSW 21:28:07 14° S visible
13 Aug 3.0 21:02:26 10° NW 21:07:53 49° WSW 21:13:03 11° S visible
14 Aug 2.9 20:46:41 10° NW 20:52:11 52° WSW 20:57:37 10° S visible
15 Aug 2.8 20:30:57 10° NW 20:36:30 55° WSW 20:41:58 10° S visible
16 Aug 2.8 20:15:14 10° NW 20:20:48 58° WSW 20:26:18 10° S visible
17 Aug 2.7 19:59:30 10° NNW 20:05:06 62° WSW 20:10:38 10° SSE visible
18 Aug 5.1 21:31:54 10° W 21:32:15 10° W 21:32:36 10° W visible
19 Aug 5.0 21:15:12 10° W 21:16:36 11° W 21:17:59 10° WSW visible
20 Aug 4.9 20:59:02 10° WNW 21:00:57 12° W 21:02:52 10° WSW visible
